Dewpoint
74 74 74 75 76 75 72 70 58 60 59 54 55 55 56 61 62 59 60 61 59 63 63 65 63 64 63 61 62 61 62 60 59 56 57 65 67 65 67 71 72 72 72 72 73 75 76 77 77 77 76 76 76 76 77 77 77 77 77 77 77 77 76 77 77 76 76 76 75 76 77 77 77 77 77 77 77 76 76 76 75 75 75 75 75 75 75 76 75 75 75 76 76 75 75 74 75
73 72 74 75 73 71 64 68 58 56 55 53 56 57 57 59 60 57 58 61 62 63 64 64 67 66 64 64 63 62 63 62 63 63 64 64 64 65 68 71 72 71 71 71 71 73 74 76 77 77 76 76 76 75 76 76 77 77 77 77 76 76 76 77 77 77 76 76 75 75 75 76 77 76 77 77 76 76 76 76 76 75 75 75 75 75 75 75 75 75 75 75 76 75 74 74 74
72 72 74 73 73 70 68 66 55 55 53 51 55 53 59 60 58 60 62 62 63 65 65 67 66 66 64 63 62 62 60 65 62 61 62 63 62 68 67 69 71 71 71 70 70 70 70 76 77 77 76 76 76 76 76 76 76 77 77 77 77 77 76 76 76 76 76 76 75 75 75 74 74 75 75 76 75 75 75 75 75 75 75 74 74 74 74 74 75 75 75 75 75 75 74 74 74
72 73 72 71 66 71 62 61 56 53 54 55 50 60 58 59 60 62 64 65 64 67 67 65 64 67 64 62 62 62 62 63 62 61 61 62 63 67 66 70 72 71 69 69 69 70 72 76 77 77 76 76 76 76 76 76 76 76 76 76 77 76 76 76 76 76 75 75 75 75 75 74 74 74 74 74 74 74 75 74 74 74 74 74 75 75 75 74 75 75 75 75 75 75 75 75 75
71 73 75 70 67 61 61 57 54 56 53 53 53 60 59 61 62 62 63 64 66 66 65 65 64 67 68 65 65 61 62 65 63 62 65 67 63 65 66 69 70 69 68 68 69 71 73 76 77 76 77 76 76 76 76 76 76 76 76 76 76 76 76 76 75 75 75 75 75 75 75 75 75 75 74 74 74 74 74 74 74 74 74 74 75 75 75 76 75 75 75 75 75 75 75 75 75
75 75 74 72 64 69 63 56 55 56 56 62 59 59 60 61 62 63 65 66 65 65 66 66 64 65 64 66 67 63 65 68 66 66 64 64 63 66 66 69 68 67 67 68 70 72 74 77 77 76 76 76 76 76 76 76 76 76 76 76 76 76 76 76 75 75 75 75 75 75 75 75 75 75 75 75 75 74 74 74 74 74 74 74 75 75 76 76 76 76 75 75 75 75 75 75 75
69 70 70 67 66 67 57 54 52 52 59 60 60 60 61 62 63 64 65 65 67 67 67 65 66 65 62 66 65 65 68 66 68 65 62 62 62 65 65 67 66 66 67 69 71 72 74 77 77 76 76 76 76 76 76 76 76 76 76 76 76 76 76 76 75 75 75 75 75 75 76 76 76 76 75 75 75 75 75 75 75 74 74 74 75 75 76 76 76 76 75 75 75 75 75 75 75
75 67 66 62 59 61 56 54 55 56 57 58 58 61 63 64 65 65 64 63 62 64 66 67 66 64 64 65 63 66 69 70 71 63 62 61 62 64 66 66 65 66 68 71 71 73 77 77 77 76 77 77 76 76 76 76 76 76 76 76 76 76 76 76 75 75 75 75 75 75 76 76 76 76 76 75 75 75 75 75 75 74 75 75 75 76 76 76 76 76 75 75 75 74 75 75 75
71 68 69 63 58 59 56 56 54 56 59 60 59 63 65 65 66 65 63 64 65 66 66 66 66 63 63 65 65 67 67 73 70 65 61 60 62 63 64 64 65 68 70 71 72 74 75 77 77 77 77 76 76 76 76 77 76 76 76 76 76 76 76 75 75 75 75 75 75 75 75 75 75 75 75 75 75 75 74 75 75 75 75 75 75 76 76 75 75 75 75 75 75 75 75 76 76
67 66 61 60 57 54 56 56 55 57 57 59 59 62 65 66 65 64 64 63 64 66 66 68 65 64 65 64 65 67 70 76 69 62 61 60 61 62 63 64 68 69 70 72 72 73 75 77 78 77 77 77 76 76 76 77 77 76 76 76 76 76 75 75 75 75 75 75 75 75 76 75 75 75 75 75 75 75 75 75 75 76 75 75 75 75 75 75 75 75 75 75 75 76 76 76 76
63 66 64 59 56 53 53 54 56 56 58 60 60 64 63 66 66 64 64 65 66 65 67 67 64 64 65 66 68 70 69 71 65 61 60 59 61 62 63 67 69 70 71 71 71 73 74 76 77 77 77 76 76 76 77 77 76 76 76 76 76 76 75 75 75 75 75 75 76 75 75 75 75 76 75 75 75 75 75 75 75 75 75 75 75 75 75 76 76 76 75 75 76 76 76 76 76
62 60 61 56 54 51 51 49 55 57 60 61 61 64 67 67 66 64 64 63 65 66 66 67 64 64 64 64 67 72 70 70 71 61 59 60 61 61 64 67 68 69 70 70 71 73 73 76 76 77 77 76 76 76 76 76 76 76 76 76 76 76 75 75 75 75 75 75 75 76 76 75 75 76 76 76 76 76 76 76 74 75 75 75 75 75 76 76 76 75 75 75 76 76 77 77 76
63 62 58 56 54 53 52 53 55 58 57 59 62 66 67 67 64 65 65 65 65 65 65 67 66 64 64 66 69 68 70 69 70 61 60 60 61 62 65 68 69 69 70 70 71 71 72 74 74 75 75 76 76 76 77 76 76 76 76 76 76 76 75 75 75 75 75 75 74 75 76 76 76 76 76 76 76 76 75 74 74 75 75 74 75 76 76 76 76 76 76 76 77 76 76 76 76
64 63 60 56 56 53 53 54 57 54 56 61 64 66 67 65 65 67 64 64 65 64 67 69 67 65 66 67 67 68 72 72 71 61 60 60 61 61 64 67 67 68 69 70 70 70 69 70 72 73 74 75 75 76 76 76 76 76 76 76 76 76 76 76 75 76 75 75 75 75 75 76 76 76 75 74 74 74 74 74 74 75 75 75 75 76 76 76 76 76 76 76 77 77 77 76 76
64 65 62 58 55 54 54 52 54 57 60 60 65 66 66 64 66 68 66 63 64 67 68 69 67 64 63 66 64 67 68 72 70 61 60 60 60 61 62 64 66 67 68 68 68 67 66 67 70 73 75 74 75 75 75 75 76 76 77 76 76 76 76 76 76 76 76 75 75 75 76 76 74 74 74 74 74 74 75 75 75 75 75 76 76 76 76 76 77 77 77 77 77 76 76 77 77
66 63 60 56 54 52 54 55 58 55 57 59 63 65 63 65 64 65 67 67 67 69 68 65 67 66 66 67 66 67 68 71 64 61 60 60 61 61 62 62 64 65 67 67 65 65 64 66 69 72 73 74 74 74 75 76 76 77 77 77 77 76 76 76 76 76 76 76 75 76 75 75 74 73 74 74 75 74 75 75 75 75 76 76 76 76 77 76 76 77 77 77 77 77 77 77 78
69 63 56 54 53 51 56 55 56 57 60 61 64 65 64 63 66 68 69 69 67 66 66 65 66 67 66 68 66 67 65 69 63 61 60 61 61 60 61 61 62 62 64 63 62 61 61 65 68 71 72 72 73 74 74 76 76 77 76 77 77 77 76 76 76 76 76 75 75 76 76 74 75 75 74 72 74 73 74 75 75 76 76 76 76 76 77 77 77 77 77 77 77 77 78 78 78
65 59 56 54 52 53 57 56 58 60 59 63 63 63 64 61 65 66 69 67 67 66 65 68 69 69 67 68 67 65 65 65 61 60 60 61 61 60 59 60 60 61 61 61 59 59 62 65 68 70 72 72 72 73 74 75 76 76 76 76 76 76 76 76 76 76 76 76 75 76 76 75 74 75 74 74 73 73 73 75 76 76 76 76 76 77 77 77 77 77 77 77 78 78 78 77 77
62 59 60 55 55 56 60 59 59 60 59 63 63 64 63 64 65 66 66 65 64 64 66 67 68 68 67 67 66 64 65 64 61 60 60 59 60 59 59 60 60 59 58 58 58 57 62 66 68 70 70 72 72 72 73 74 76 77 76 76 76 76 76 76 76 76 76 76 76 75 75 73 73 75 76 74 74 75 74 75 77 77 77 76 77 77 77 77 78 77 78 78 78 78 77 76 73
63 61 57 55 58 59 61 62 62 62 64 62 62 64 63 64 65 67 64 64 64 64 63 65 65 66 66 66 65 64 64 63 61 60 59 60 60 60 59 59 58 59 56 56 57 58 61 65 68 69 71 71 71 72 73 74 76 76 75 75 75 76 77 76 77 77 76 75 74 75 72 73 73 76 74 74 74 73 74 77 77 77 77 77 77 77 77 77 78 78 78 79 78 77 76 75 73
61 59 57 58 60 59 60 63 64 63 63 62 63 65 63 65 65 65 64 63 63 63 65 64 64 64 65 65 65 63 65 63 61 60 59 59 60 59 59 58 57 57 57 56 58 57 60 64 68 70 70 71 70 72 72 74 75 74 74 74 75 76 76 76 76 76 76 75 74 74 71 71 71 75 76 76 75 74 75 76 75 75 75 75 77 76 75 73 76 75 76 77 76 75 76 74 72
62 60 59 59 60 59 62 63 65 63 63 62 62 61 63 67 66 65 65 61 63 64 64 65 66 65 64 64 64 63 64 63 60 59 58 58 58 60 58 57 57 56 57 57 58 59 61 66 68 70 70 71 71 72 73 74 74 74 74 74 74 75 75 75 75 76 75 75 73 70 70 71 72 73 75 75 73 73 72 74 73 73 73 73 73 74 74 73 74 73 72 73 74 74 73 73 72
60 60 61 61 62 60 64 64 64 63 62 62 62 63 65 65 64 66 66 64 66 63 65 66 66 65 65 64 63 62 61 60 59 58 58 57 57 57 57 56 55 54 56 57 59 60 62 66 68 69 70 71 71 72 73 73 73 73 73 75 74 75 75 75 74 74 74 75 72 71 67 68 67 68 72 73 72 71 71 70 71 72 72 72 72 74 71 72 76 79 77 75 74 73 73 73 73
63 59 60 61 64 63 64 64 64 62 63 64 65 67 64 64 61 65 64 64 67 65 66 67 65 65 64 62 63 62 61 59 58 58 58 56 56 55 56 55 55 55 56 57 58 58 61 66 68 69 70 70 71 71 73 73 73 72 73 76 75 74 75 73 73 73 73 74 74 70 71 68 64 66 68 71 71 69 69 69 73 69 68 69 71 72 75 75 76 76 78 76 73 71 72 73 71
61 60 62 64 65 64 64 64 62 63 65 65 65 64 63 65 64 65 64 64 63 68 69 67 63 61 62 62 63 63 60 58 57 57 57 56 55 55 55 54 55 55 54 56 58 58 58 64 64 68 69 70 70 70 71 72 73 73 74 74 75 74 73 74 73 74 71 72 71 72 72 67 63 64 67 66 69 70 70 70 69 66 68 70 71 74 74 76 77 77 77 75 72 72 75 72 72
61 62 63 64 63 64 64 65 63 65 66 65 64 63 65 67 67 64 64 66 68 67 67 65 60 59 58 60 61 61 58 57 56 55 55 54 53 52 52 53 54 53 54 55 57 58 57 61 63 65 68 68 69 68 71 71 73 73 73 74 74 75 73 73 72 71 70 70 68 71 68 67 69 66 68 67 64 67 67 67 69 67 72 76 76 75 76 76 75 75 73 72 70 69 72 71 70
58 64 62 64 64 65 65 64 64 64 63 65 63 63 64 66 65 61 66 66 67 67 67 66 64 56 56 57 59 58 56 55 55 53 53 54 51 51 52 53 53 52 53 55 57 56 60 59 62 66 66 71 68 68 70 71 74 73 72 70 71 72 72 74 73 69 67 66 69 74 76 74 70 66 64 67 65 66 70 74 74 75 72 72 72 75 75 74 72 70 69 71 70 70 70 69 70
58 63 63 65 63 65 64 64 63 64 63 65 64 63 65 64 64 61 65 66 65 67 66 67 66 56 54 56 57 58 58 55 55 53 51 50 50 50 50 52 50 52 51 54 57 55 57 57 60 64 66 67 69 68 71 68 71 69 71 69 68 70 72 70 71 69 69 69 67 73 74 71 73 74 65 66 66 69 69 68 69 76 74 75 74 69 69 71 71 69 68 67 67 68 68 66 67
60 61 64 60 60 60 62 62 63 63 62 64 65 63 61 61 61 63 65 65 65 67 66 65 64 56 55 55 56 57 56 55 54 52 50 51 50 50 50 50 47 52 52 53 56 56 57 56 60 63 64 65 66 66 67 67 68 66 68 68 69 66 70 71 68 67 69 70 72 72 75 73 76 71 70 69 76 69 65 66 66 70 71 71 73 69 65 70 66 63 64 60 63 62 59 59 54
57 65 61 58 58 58 62 63 62 61 63 64 64 56 59 61 63 66 64 66 66 68 66 63 58 55 54 55 55 56 54 54 51 51 51 51 49 50 49 49 48 51 53 55 54 56 56 55 58 59 62 63 62 63 67 66 67 67 69 66 70 68 67 67 66 67 68 69 71 71 73 73 73 70 72 72 71 65 66 69 64 65 71 70 71 68 64 68 61 61 59 61 64 63 55 57 54
54 57 58 55 54 54 61 61 60 60 63 64 64 56 58 61 63 64 66 67 65 66 65 60 58 55 54 55 56 56 52 53 50 51 50 50 49 49 48 48 48 50 52 53 52 54 56 56 57 58 61 63 63 64 64 67 65 64 64 67 65 67 66 65 64 63 63 67 70 72 73 73 73 71 73 73 68 68 63 63 65 62 66 67 65 63 60 70 67 67 62 59 61 62 59 61 58
58 54 48 49 52 57 59 61 60 57 61 64 62 55 59 62 61 61 65 67 64 62 60 59 58 52 52 53 53 51 50 52 50 51 49 50 48 47 46 47 47 48 50 52 50 54 54 56 57 57 60 62 64 66 64 67 62 64 65 67 66 66 63 61 60 60 61 60 63 68 73 74 73 74 74 75 69 65 62 62 62 65 70 67 62 69 72 71 69 63 65 63 63 60 62 58 60
56 50 50 46 50 51 58 59 58 58 60 60 60 55 59 61 63 64 63 65 62 58 58 58 53 49 51 51 52 50 51 51 50 51 49 49 47 45 46 46 47 48 49 51 50 52 54 56 57 56 59 61 64 64 65 67 63 62 62 61 58 63 59 59 57 58 59 60 61 61 71 72 72 72 75 75 73 65 61 61 60 62 65 69 64 61 69 71 66 59 69 71 68 65 60 59 58
48 52 57 50 45 49 50 54 55 56 55 54 59 57 58 61 64 65 63 63 64 58 58 58 52 48 51 52 52 50 53 51 50 51 48 48 47 47 45 53 47 47 50 50 49 52 53 56 55 57 59 61 60 65 65 65 61 65 62 59 66 59 55 55 56 56 58 56 58 61 70 70 72 73 74 75 74 67 64 65 65 66 67 70 72 68 69 69 72 67 67 73 70 68 64 61 60
45 52 53 51 46 47 48 52 51 53 54 53 56 58 59 60 62 64 65 66 65 62 60 59 50 48 49 48 50 49 49 49 48 51 47 48 47 47 46 47 47 47 49 49 47 53 53 54 57 62 58 60 59 66 70 67 62 65 59 60 59 64 62 56 56 55 53 60 55 68 72 69 72 73 74 76 75 70 66 65 68 75 72 72 71 72 68 73 71 66 65 67 72 71 69 66 63
46 54 53 50 47 47 44 48 49 51 51 50 57 59 62 60 61 63 65 66 64 63 60 57 51 48 48 46 46 47 49 47 48 49 47 46 45 47 51 50 51 51 50 51 50 53 55 50 56 60 59 59 59 63 66 64 63 63 59 60 61 63 61 62 60 55 55 53 56 70 72 71 72 74 75 76 76 71 66 64 65 62 71 71 73 71 70 72 68 69 71 64 68 69 69 67 63
54 55 53 51 49 56 45 47 49 49 51 50 53 59 60 62 62 64 65 65 63 62 61 56 51 49 48 45 49 48 51 50 48 49 47 47 44 45 52 50 51 49 51 51 49 52 52 49 58 60 58 61 62 63 63 62 61 62 61 58 56 57 60 58 55 57 56 60 65 64 72 68 73 73 75 74 75 74 70 68 69 72 70 75 71 69 67 67 69 71 69 74 66 66 64 62 61
55 53 53 53 43 49 50 47 48 49 47 49 50 52 54 59 63 65 65 64 61 61 61 57 51 49 49 50 52 52 55 51 50 49 47 48 46 47 53 49 54 48 50 51 51 52 53 50 53 57 57 60 61 61 62 61 63 60 58 56 53 53 58 57 55 57 54 54 70 70 71 70 72 74 76 76 76 73 71 67 68 70 70 73 73 76 72 74 74 71 68 68 69 65 64 61 58
57 51 51 43 44 46 47 47 48 47 51 53 51 50 53 58 61 64 64 65 65 62 58 56 53 52 52 51 52 52 53 53 51 49 48 49 48 53 50 49 47 50 48 50 50 51 52 54 59 60 59 60 60 61 64 63 62 65 59 56 54 50 53 59 53 56 55 55 62 66 76 74 74 71 73 76 74 71 70 70 69 68 69 68 73 70 67 70 73 69 72 69 67 66 65 64 63
47 48 42 43 43 45 48 47 48 50 53 56 48 45 49 50 59 61 61 61 67 65 63 58 53 52 52 51 53 52 53 54 52 50 48 49 51 56 50 52 50 52 51 50 49 52 51 61 62 62 62 61 65 65 68 61 63 72 74 73 73 72 71 68 64 62 62 61 66 62 70 76 72 69 69 68 70 71 73 74 71 67 71 75 73 72 70 65 72 71 68 68 69 66 64 64 65
43 41 41 40 42 47 46 49 47 48 50 55 53 51 52 49 48 58 61 60 63 64 65 62 55 52 52 52 53 52 53 55 53 52 49 51 52 54 50 56 49 52 50 49 49 49 49 52 62 65 63 61 63 70 68 71 73 76 79 75 71 75 73 70 61 60 67 67 65 66 65 70 72 72 70 69 69 72 73 74 72 70 70 73 68 66 68 64 63 66 67 68 69 69 65 66 66
40 41 41 39 37 43 49 48 49 49 48 51 50 45 46 51 49 50 52 56 60 61 61 62 54 53 51 51 54 52 53 55 52 54 51 52 53 56 53 55 51 51 51 50 50 50 50 52 58 65 65 62 57 66 70 74 76 76 75 76 75 74 72 70 66 62 58 59 57 61 64 68 70 70 70 71 71 70 74 74 74 71 69 72 67 63 63 63 64 64 65 65 65 70 69 68 63
39 41 39 37 37 50 51 50 48 48 47 50 49 46 46 46 48 48 51 52 51 53 55 55 57 55 51 50 53 52 51 52 51 52 53 52 54 55 55 53 54 53 51 52 50 51 50 51 58 60 65 66 59 68 70 74 76 73 72 64 64 65 66 64 70 62 58 59 60 63 66 68 69 68 68 71 69 74 78 76 77 74 71 69 71 69 66 63 62 62 66 66 67 69 71 69 66
38 38 38 37 36 47 44 46 50 47 48 49 49 48 49 47 44 48 48 48 50 52 57 60 59 59 50 50 51 53 51 51 52 52 53 52 55 54 54 54 52 53 50 51 50 49 51 57 56 63 68 69 63 67 70 73 75 74 74 71 62 60 52 60 62 64 58 70 72 71 67 72 70 71 72 73 73 72 74 72 75 75 73 70 70 69 67 65 62 62 72 72 73 72 72 71 69
38 39 39 38 37 36 43 47 58 55 50 50 48 47 44 45 48 45 45 48 50 51 58 60 61 59 59 51 50 51 51 51 51 51 52 53 54 54 53 53 53 52 51 50 51 50 51 52 60 63 67 71 68 71 71 72 74 74 74 70 72 68 62 58 64 66 70 72 67 69 68 64 68 70 69 73 71 72 76 74 78 78 75 73 73 69 69 66 65 66 74 72 70 71 68 68 72
38 38 38 36 34 34 33 34 48 53 51 47 48 48 48 55 54 45 45 44 46 51 56 57 61 58 58 51 50 51 50 51 51 51 52 52 53 54 54 53 53 52 52 51 50 50 50 53 61 64 68 68 66 72 72 73 74 75 74 74 71 72 67 69 70 72 69 73 73 74 74 78 63 69 71 77 76 72 72 77 74 71 72 70 72 69 69 68 67 70 67 66 66 68 75 73 75
38 37 36 33 33 33 38 43 54 48 44 49 46 47 44 45 49 45 45 43 44 49 55 57 57 57 56 51 50 50 49 50 50 51 52 52 52 54 54 53 53 51 52 51 51 50 50 51 58 64 68 66 66 70 73 74 73 72 73 74 74 72 70 68 71 70 75 77 71 65 68 76 72 67 73 70 67 71 71 72 68 67 67 70 71 69 69 66 64 64 62 64 70 74 71 73 68
35 34 34 33 35 41 37 40 42 40 41 39 45 46 44 43 48 45 46 45 43 49 51 51 54 56 56 53 50 49 48 49 49 50 51 52 54 53 54 54 52 51 50 50 51 50 52 52 57 66 69 70 67 66 70 72 72 73 73 75 74 74 75 65 68 69 67 70 68 71 76 74 73 65 67 64 66 63 71 72 71 69 69 67 67 67 67 66 68 68 65 63 70 70 73 77 74
32 32 32 30 36 40 39 42 39 39 37 42 39 45 44 43 44 40 43 44 44 46 49 49 51 53 55 53 51 50 48 48 50 51 52 51 53 53 53 54 54 54 53 50 50 50 51 54 58 66 70 70 70 65 69 72 73 73 73 73 75 75 74 74 72 70 68 66 67 64 74 73 73 70 66 60 63 65 66 73 72 72 71 69 70 75 73 72 70 63 63 64 66 78 76 73 75
28 29 31 32 35 42 42 46 37 35 35 35 36 45 37 43 42 43 39 44 45 46 51 51 50 53 54 54 52 49 49 47 49 50 50 52 54 53 55 55 54 53 50 49 49 52 51 51 59 62 69 70 73 70 68 71 73 74 74 73 73 75 76 73 75 69 64 67 69 68 62 63 69 67 64 65 63 60 71 69 72 71 72 73 74 74 73 73 71 65 65 67 68 72 76 78 73
31 32 30 35 40 39 35 38 33 34 36 35 34 34 42 37 42 39 40 43 45 44 44 51 52 53 55 55 52 50 49 48 49 50 49 50 52 55 54 55 54 52 50 49 50 54 55 55 61 66 69 70 72 72 72 72 71 72 74 72 73 71 71 73 73 72 71 68 61 60 63 58 56 59 63 66 71 76 71 68 67 68 69 71 75 75 68 70 74 76 73 73 73 71 73 72 69
28 29 31 31 40 41 36 40 35 35 35 34 35 50 49 42 36 41 41 42 45 45 46 52 50 49 54 53 51 50 50 48 47 48 49 51 54 56 55 55 54 53 56 52 49 51 50 55 62 63 69 68 70 73 73 71 72 70 73 74 72 72 74 69 73 76 76 72 67 64 64 70 67 62 63 71 67 66 65 66 67 67 70 69 71 72 73 70 72 75 77 75 74 71 72 72 71
28 27 34 47 34 35 42 39 36 34 34 34 37 44 39 40 28 25 28 31 39 46 46 46 50 51 52 53 53 50 49 49 48 47 48 53 51 53 54 55 52 52 52 52 56 51 56 58 57 66 69 68 69 73 68 69 71 70 70 69 68 68 66 66 64 67 72 71 73 71 67 66 66 71 59 61 61 67 67 68 69 63 72 71 75 74 72 73 75 77 76 77 75 73 74 73 72
24 26 37 32 33 31 33 41 44 34 32 42 34 32 36 35 35 27 27 33 43 47 49 48 46 50 53 53 52 51 50 49 48 48 50 51 52 53 52 52 51 51 51 50 57 51 56 58 60 64 66 68 71 72 68 66 67 66 66 65 68 67 65 64 66 68 63 64 68 70 69 66 63 58 56 53 63 68 72 73 72 71 71 71 73 68 67 66 72 76 73 74 74 77 75 74 76
22 26 29 27 40 42 33 30 31 33 32 40 41 44 39 38 34 26 27 29 44 45 47 48 48 47 48 51 51 51 50 50 50 47 49 50 53 53 55 53 51 53 54 51 51 53 55 57 61 62 69 68 71 72 70 66 61 60 59 60 59 63 64 65 69 76 73 62 60 58 60 64 62 61 61 64 67 68 70 70 73 71 71 71 71 70 72 75 75 76 77 75 73 74 75 76 77
22 24 25 31 37 39 34 45 36 36 34 35 39 30 33 26 23 23 27 31 35 48 45 48 50 48 48 48 49 49 52 53 51 49 48 48 50 51 52 54 52 51 51 50 50 52 50 58 67 68 63 69 73 73 73 71 64 58 55 57 60 64 71 77 74 71 65 58 57 59 59 55 54 55 59 71 68 72 75 70 64 68 70 70 71 71 71 70 72 73 75 72 74 74 74 75 76
20 22 25 28 30 35 33 38 37 40 38 38 37 32 30 30 27 28 33 32 34 37 45 46 46 46 47 51 49 50 51 51 52 48 48 47 49 49 52 53 54 53 53 54 52 52 51 57 64 68 64 68 70 72 73 73 74 72 68 60 54 66 68 78 77 75 70 63 61 60 56 56 68 68 70 70 72 76 76 75 74 74 71 75 75 74 73 77 78 76 72 74 74 73 73 73 74
21 23 23 23 32 44 31 42 35 40 49 37 32 32 41 31 31 38 34 38 34 37 40 45 47 48 49 46 46 53 55 53 52 50 50 50 52 50 50 52 53 53 52 53 52 54 51 62 62 64 67 73 70 71 74 76 76 75 70 72 72 73 79 81 76 65 64 63 61 62 65 67 63 77 73 70 78 72 75 75 73 74 75 73 77 78 74 78 78 77 74 73 72 70 70 71 72